Temperature
21 22 22 22 19 17 19 21 24 26 27 28 28 27 25 25 24 22 23 23 23 23 22 22 22 22 22 22 22 22 21 21 21 21 21 21 20 20 20 20 20 20 19 19 19 19 19 19 19
22 21 22 21 17 18 19 22 24 26 27 28 27 26 25 23 23 22 22 23 23 23 22 22 22 22 22 22 21 21 21 21 21 20 20 20 20 20 20 20 20 19 19 19 19 19 19 19 19
22 21 21 17 18 18 21 24 25 27 28 28 27 25 24 23 22 22 23 23 23 23 22 22 22 22 21 21 21 21 21 21 20 20 20 20 20 20 20 19 19 19 19 19 19 19 19 19 19
21 21 21 17 19 20 22 24 25 27 28 27 26 23 23 23 23 23 23 23 23 22 22 22 21 21 21 21 21 21 20 20 20 20 20 20 19 19 19 19 19 19 19 19 19 19 19 19 18
21 21 18 18 19 21 23 25 26 27 27 26 25 22 21 22 23 23 23 23 23 22 22 21 21 21 21 21 20 20 20 20 20 20 19 19 19 19 19 19 19 19 19 19 19 19 19 19 18
21 18 17 18 20 22 24 26 27 26 26 25 23 21 20 21 22 22 22 22 22 22 21 21 21 21 21 20 20 20 20 20 20 19 19 19 19 19 19 19 19 19 18 18 18 18 19 18 18
20 17 18 19 20 22 25 26 26 25 25 24 23 20 20 20 21 22 22 22 22 21 21 21 21 21 20 20 20 20 20 20 19 19 19 19 19 19 19 19 19 18 18 18 18 18 18 18 18
22 17 19 19 21 22 25 26 26 25 24 24 23 21 20 20 21 21 21 21 21 21 21 21 20 20 20 20 20 20 20 19 19 19 19 19 19 19 19 19 19 18 18 18 18 18 18 18 18
22 17 18 20 22 22 24 24 25 25 24 23 22 21 21 20 21 20 20 20 20 20 20 20 20 20 20 20 20 20 19 19 19 19 19 19 19 19 19 19 18 18 18 18 18 18 18 18 18
21 17 19 21 22 22 23 24 24 23 22 21 21 21 20 20 20 20 19 19 19 20 20 20 20 20 20 20 20 20 20 19 19 19 19 19 19 19 19 18 18 18 18 18 18 18 18 18 18
21 19 20 22 24 24 23 23 24 23 21 20 20 20 20 20 19 19 19 19 19 19 19 19 20 19 19 20 20 20 20 19 19 19 19 19 19 18 18 18 18 18 18 18 18 18 18 18 18
21 21 23 24 25 24 24 23 22 22 21 21 21 20 20 19 19 19 19 19 19 19 19 19 19 19 19 19 20 20 19 19 19 19 19 19 18 18 18 18 18 18 18 18 18 18 18 18 18
21 21 24 24 25 24 24 23 21 21 21 21 20 19 19 19 19 19 19 19 18 18 18 19 19 19 19 19 19 19 19 19 19 19 19 18 18 18 18 18 18 18 18 18 18 18 18 17 17
22 22 23 24 25 24 23 22 21 20 20 20 19 19 19 19 19 19 18 18 18 18 18 18 18 18 18 19 19 19 19 19 19 19 19 18 18 18 18 18 18 17 17 17 17 17 17 17 17
24 22 22 23 24 24 23 21 20 20 20 19 18 18 18 19 19 19 19 19 19 18 18 18 18 18 18 18 18 18 19 18 19 18 18 18 18 18 17 17 17 17 17 17 17 17 17 17 17
22 22 21 22 23 24 22 20 20 20 19 17 17 17 17 18 18 18 18 18 18 18 18 18 18 18 18 18 18 18 18 18 18 18 18 18 17 17 17 17 17 17 17 17 17 16 16 16 16
19 20 21 22 23 23 21 20 19 20 19 17 17 16 17 16 17 17 18 18 18 18 17 17 18 18 18 18 17 17 17 17 17 17 17 17 17 17 17 17 17 17 17 16 16 16 16 16 16
19 20 21 21 22 22 21 19 19 20 19 18 17 16 16 16 16 16 17 17 17 17 17 17 17 17 17 17 17 17 17 17 17 17 17 17 17 17 17 17 17 16 16 16 16 16 16 16 16
20 21 20 21 22 22 20 20 19 19 18 17 16 16 15 16 16 16 16 16 16 16 16 16 16 16 16 16 17 17 17 16 16 16 16 16 16 16 16 16 16 16 16 16 16 16 16 16 15
21 21 21 21 22 22 20 19 18 18 18 17 16 15 15 15 15 15 16 16 16 16 16 16 16 16 16 16 16 16 16 16 16 16 16 16 16 15 16 16 16 16 16 16 16 16 16 15 15
21 21 21 21 22 21 21 19 18 18 17 17 16 16 15 15 15 15 15 15 15 15 15 15 15 16 16 16 16 15 15 15 15 15 15 15 15 15 15 15 15 15 15 15 15 15 15 15 15
20 22 22 22 20 19 20 18 17 17 16 16 16 15 15 15 15 15 15 14 14 14 14 15 15 15 15 15 15 15 15 15 15 15 15 15 15 15 15 15 15 15 15 15 15 15 15 15 15
22 22 22 21 20 18 18 17 16 16 16 16 15 15 14 14 14 14 14 14 14 14 14 14 14 14 14 14 14 14 14 14 14 14 14 14 14 14 14 14 14 15 14 14 15 14 14 14 14
22 21 20 17 17 17 17 17 16 15 16 16 15 15 14 14 14 14 14 13 13 13 13 13 13 13 13 13 13 13 14 13 13 13 13 13 14 14 14 14 14 14 14 14 14 14 14 14 14
21 18 17 17 16 16 17 17 16 16 17 16 15 14 14 14 13 13 13 13 13 13 13 12 12 13 13 13 13 13 13 13 13 13 13 13 13 13 13 13 13 13 13 13 14 14 14 14 13
20 18 17 17 16 16 16 16 16 16 16 16 15 14 14 13 13 13 13 12 12 12 12 12 12 12 12 12 12 12 12 12 12 12 12 12 12 12 12 13 13 13 13 13 13 13 13 13 13
20 18 17 15 16 15 16 16 16 15 15 15 14 13 13 13 13 12 12 12 12 11 11 11 11 11 11 11 11 11 11 11 11 11 11 11 12 12 12 12 12 12 12 13 13 13 13 12 12
20 18 15 15 15 16 16 16 15 15 14 14 13 13 12 12 12 12 11 11 11 10 10 10 10 10 10 10 10 10 10 10 11 11 11 11 11 11 11 12 12 12 12 12 12 12 12 12 12
19 19 17 15 15 15 15 15 16 15 14 14 13 12 12 12 11 11 11 10 10 10 10 10 9 9 9 10 10 10 10 10 10 10 10 10 10 10 11 11 11 11 11 11 12 12 12 12 12
19 18 17 16 16 15 15 15 16 14 14 14 13 12 11 11 11 11 10 10 10 9 9 9 9 9 9 9 9 9 9 9 9 9 10 10 10 10 10 10 10 11 11 11 11 11 11 11 11
Wind_Speed
6 5 1 4 5 4 5 7 5 7 2 1 7 11 11 6 5 5 4 16 19 18 18 21 22 22 21 21 20 20 20 20 20 19 19 19 19 19 18 18 16 16 15 14 14 13 13 14 15
3 1 3 5 5 1 7 7 7 7 4 7 9 11 10 7 7 9 8 15 20 18 18 20 22 22 21 21 20 20 19 19 19 18 18 18 17 17 16 16 15 14 14 13 12 12 12 12 12
3 1 4 4 3 6 7 5 4 1 5 6 6 7 6 6 7 6 9 17 17 15 17 20 23 22 21 21 20 19 19 19 18 18 17 16 16 15 15 14 14 13 12 11 11 11 10 10 10
2 4 4 3 7 8 7 11 9 3 3 6 9 8 5 4 4 10 17 18 16 12 15 20 22 21 21 20 20 19 18 18 17 17 16 15 14 14 13 13 12 12 11 11 10 9 9 8 8
4 4 3 3 7 7 8 10 9 3 2 6 10 8 5 6 12 18 17 17 17 12 13 18 20 20 20 19 19 19 18 17 17 16 15 14 13 13 12 12 11 11 10 10 9 9 8 7 6
4 4 2 4 8 8 8 8 5 2 5 7 9 8 5 5 13 15 15 14 14 14 12 16 19 19 19 19 18 18 18 17 17 16 15 14 13 12 12 11 10 10 9 9 8 8 7 6 5
4 3 3 5 7 9 8 5 2 5 6 4 5 7 5 6 10 14 15 14 12 12 12 12 15 17 18 18 18 18 17 17 17 16 15 14 13 12 11 10 9 9 8 8 8 7 6 5 4
5 3 3 4 5 8 7 5 2 7 6 5 5 8 7 7 11 16 16 13 11 10 9 9 11 13 14 15 17 17 17 16 16 15 15 14 13 11 10 9 9 9 8 8 7 7 6 5 4
4 2 4 5 4 6 7 5 3 5 8 7 6 8 11 13 14 16 14 11 9 9 7 7 8 9 11 12 14 16 16 15 15 14 14 13 11 10 10 9 9 9 8 8 7 6 6 6 5
5 4 8 6 4 6 7 5 1 5 9 8 11 13 17 16 14 16 14 10 7 7 6 6 6 7 9 10 11 11 12 12 12 11 12 11 10 10 9 9 10 10 9 8 7 7 6 6 4
6 7 8 9 8 5 2 5 4 6 7 8 13 15 16 17 16 15 13 10 7 4 4 5 5 5 6 6 9 8 8 10 10 10 11 10 8 8 7 7 9 9 9 7 7 7 6 5 4
5 9 8 9 6 2 0 2 6 7 6 10 14 15 16 16 15 13 12 10 8 6 4 4 4 4 4 6 7 7 6 7 7 9 11 9 5 5 5 6 7 8 7 7 6 6 6 5 5
7 10 11 9 4 1 4 5 8 8 11 15 16 16 16 16 14 12 11 11 10 6 3 2 3 2 2 4 4 6 5 7 8 9 10 10 6 4 5 5 7 8 8 7 6 6 5 4 4
8 8 8 7 4 1 6 3 6 6 12 16 15 15 14 14 13 11 10 10 9 5 2 2 2 1 2 3 3 3 5 7 8 8 8 9 8 5 5 4 5 7 8 8 6 5 4 3 4
5 5 6 4 2 2 6 5 3 9 14 15 14 13 12 11 12 12 10 9 8 5 2 3 4 2 2 2 2 3 4 6 5 6 7 7 7 7 5 4 4 6 9 8 6 4 3 3 3
4 2 3 7 2 3 6 2 4 9 15 14 12 12 11 9 9 9 9 8 7 5 4 3 4 3 0 1 1 1 3 4 4 5 6 6 6 6 5 3 4 5 6 5 3 4 4 3 3
5 1 5 8 5 3 5 5 6 9 13 14 13 13 13 9 7 6 7 7 6 5 4 3 2 2 1 1 1 1 2 2 3 4 4 5 5 5 4 3 4 5 4 3 4 3 4 4 4
4 4 5 8 6 3 5 6 8 9 14 14 14 14 13 11 7 6 7 6 6 6 4 2 2 3 1 0 1 1 2 2 2 2 3 4 4 4 3 2 3 4 3 3 3 4 4 4 5
5 7 9 10 7 5 8 8 9 10 12 13 13 13 13 11 7 6 6 7 8 7 4 2 4 3 2 0 0 1 1 1 0 1 2 3 3 3 3 2 3 3 4 4 5 4 4 3 4
7 7 8 7 4 4 7 6 8 9 12 14 16 15 14 12 9 7 7 7 8 7 5 5 4 4 3 2 1 1 1 1 1 1 2 1 2 2 2 2 2 2 3 3 4 4 3 3 4
7 5 5 4 3 5 7 4 5 5 9 11 11 13 13 14 11 9 7 7 7 6 5 4 5 5 5 5 3 3 3 2 3 3 2 2 2 2 1 1 1 1 2 3 3 4 5 4 4
5 5 2 2 4 2 4 3 2 5 7 8 8 9 11 11 10 8 8 7 7 6 5 6 5 6 6 5 4 4 2 1 1 1 1 3 4 3 3 2 1 1 1 2 2 3 3 4 4
5 3 1 1 3 3 5 4 2 4 6 7 8 10 10 10 10 10 9 9 7 6 6 5 6 6 6 6 5 4 3 1 1 1 2 2 3 4 4 4 2 1 0 1 2 2 3 3 4
2 5 7 6 5 3 2 3 3 3 7 9 10 11 11 12 11 10 9 9 7 6 6 6 6 6 6 6 5 4 4 3 3 3 3 2 2 3 4 4 3 2 1 1 1 2 3 3 4
4 6 5 6 5 2 3 2 3 4 3 9 12 12 11 12 11 10 9 8 7 7 6 6 7 6 6 6 6 5 4 4 3 3 2 2 2 3 3 3 3 2 1 1 0 0 1 2 3
1 8 7 3 2 3 3 1 3 4 1 7 11 13 13 11 10 9 9 8 7 7 6 6 6 5 6 6 5 5 5 3 3 3 2 2 2 2 2 3 3 3 3 2 1 0 0 0 1
2 3 7 7 3 2 2 2 2 4 8 9 11 12 12 10 10 9 8 8 7 7 6 5 5 6 6 5 5 5 5 4 4 4 4 3 2 2 3 3 3 3 3 2 2 1 1 1 0
4 6 6 6 4 1 2 2 3 3 5 7 9 10 10 10 9 9 8 8 7 6 5 5 6 5 5 5 5 5 5 4 4 4 5 4 4 3 3 4 4 3 3 3 3 2 2 2 1
3 2 5 4 6 6 3 5 5 8 7 9 9 9 11 10 9 9 7 7 6 5 5 5 5 5 5 5 5 5 5 5 5 4 4 4 4 4 4 4 4 4 4 4 4 3 3 3 4
3 2 5 4 2 4 4 5 2 6 7 8 9 10 11 11 10 9 8 7 6 5 5 5 5 4 4 4 5 5 4 5 5 5 5 5 5 5 4 4 5 5 5 4 4 5 5 5 5
Wind_Direction
289 287 70 50 52 44 261 254 258 298 316 71 97 101 102 96 133 148 134 141 138 143 149 148 144 140 135 131 128 125 123 120 117 115 113 112 112 113 113 113 114 115 117 116 115 113 113 114 115
302 296 58 61 88 303 269 253 253 257 177 124 92 92 85 73 85 108 116 140 139 142 146 148 145 141 138 135 132 130 128 126 123 120 117 116 115 114 114 115 116 116 117 118 117 116 116 116 116
290 43 83 80 149 199 247 271 275 229 135 111 90 68 76 105 107 113 131 137 133 135 141 148 146 143 141 138 137 135 133 131 129 127 125 122 121 119 118 119 121 121 121 122 121 121 122 121 119
46 48 52 79 250 239 240 278 297 317 54 78 98 74 65 59 117 125 130 131 126 127 136 146 146 144 143 142 141 139 138 137 136 134 133 130 128 126 125 125 126 127 128 129 129 129 129 128 125
63 74 50 299 262 259 253 263 265 251 102 89 97 92 60 21 104 118 127 128 126 122 128 141 143 144 144 144 144 143 143 143 142 141 140 138 137 135 134 132 132 132 133 135 137 138 138 136 132
49 70 99 261 271 281 278 251 240 137 104 90 91 97 76 84 108 120 124 121 122 125 124 136 143 146 146 147 147 147 148 149 149 148 147 146 146 144 142 140 140 139 141 142 144 146 148 147 142
120 108 211 247 284 293 289 294 169 125 96 83 104 100 107 102 113 114 110 112 115 120 124 131 142 147 148 148 150 151 152 153 154 153 153 153 152 152 151 151 151 151 152 154 155 160 162 162 161
151 94 291 282 285 287 303 331 77 103 107 106 103 122 138 138 115 107 105 104 107 114 122 125 132 140 145 151 154 155 155 156 156 157 158 159 160 161 160 159 159 162 163 165 168 175 178 182 189
120 78 265 260 271 283 319 357 17 66 89 74 80 106 124 121 108 104 100 100 110 115 119 125 126 135 142 149 157 157 158 160 160 162 164 164 164 166 169 171 173 176 175 175 178 188 197 201 211
123 177 237 231 239 275 314 343 25 71 76 80 82 90 109 107 103 102 102 100 102 117 129 130 133 138 148 155 150 155 158 160 161 163 165 164 166 173 177 181 183 184 183 184 188 198 211 215 224
180 208 243 265 266 262 314 352 21 102 85 127 130 124 116 105 101 100 98 98 90 98 113 111 120 133 152 144 147 153 156 160 164 169 171 169 170 179 182 182 187 187 186 188 197 204 214 214 214
245 258 255 266 268 278 341 53 46 73 123 135 126 121 107 103 99 102 103 104 95 77 64 83 105 120 136 144 156 158 161 170 173 178 179 173 175 188 187 184 186 186 189 192 195 201 211 208 203
249 261 266 257 269 128 82 77 90 88 110 113 116 109 107 110 107 103 102 98 94 80 64 71 93 127 149 146 159 160 167 175 177 178 182 183 184 186 185 188 191 193 196 199 203 210 206 199 203
247 259 267 262 250 154 105 81 81 111 118 113 116 114 114 116 117 108 106 106 107 113 150 148 101 85 114 150 163 162 174 174 174 177 183 190 190 185 186 189 194 199 198 201 204 208 196 191 189
266 284 297 275 224 189 99 38 87 138 121 116 120 119 117 120 118 120 125 122 123 123 131 149 122 79 87 126 155 155 165 163 164 175 182 192 196 189 189 187 195 205 201 199 199 194 177 189 188
347 9 297 284 244 217 115 167 172 148 125 124 125 120 114 109 113 123 129 121 115 107 79 67 113 102 65 119 122 137 148 153 159 170 179 192 203 197 185 181 195 199 198 185 189 181 172 181 180
7 300 261 286 271 200 138 171 182 155 132 131 128 126 123 118 109 113 120 117 111 102 94 82 95 112 154 149 140 118 124 136 151 166 186 200 202 197 188 189 195 184 183 186 192 176 167 173 174
272 282 272 266 271 180 162 173 167 156 140 138 133 133 127 122 123 129 125 116 97 88 84 84 72 74 84 43 114 97 82 84 102 145 188 186 188 199 181 194 205 184 181 192 186 175 175 170 163
248 274 278 273 260 181 177 168 163 154 142 139 137 138 134 129 124 123 126 112 101 85 79 75 63 38 54 111 123 110 93 65 32 85 143 168 182 183 181 197 201 188 188 193 180 168 169 178 155
269 270 276 296 293 163 156 142 154 153 151 148 145 143 139 131 125 115 107 102 100 96 77 62 50 37 29 7 347 84 104 103 69 32 45 111 139 148 161 185 211 205 190 185 178 167 172 187 175
277 253 259 279 358 73 107 80 113 122 118 131 141 140 139 141 142 131 112 97 91 84 73 68 48 36 28 26 33 37 44 36 29 15 1 357 38 83 98 120 170 191 179 185 191 181 179 191 203
267 261 239 32 69 19 91 132 175 144 125 135 141 139 143 140 138 128 117 104 92 83 72 64 51 37 28 35 52 65 63 55 346 317 349 357 24 37 48 49 65 107 157 186 202 191 192 182 197
231 246 24 55 108 60 32 106 253 148 144 161 156 148 144 139 134 125 117 108 95 82 71 59 54 45 34 35 43 57 53 41 5 4 22 17 18 30 36 40 44 51 57 215 207 206 207 199 199
192 47 31 48 73 61 307 132 243 218 186 170 159 150 145 133 123 112 106 100 88 75 65 56 54 42 36 40 40 48 48 44 42 30 24 17 15 17 20 33 34 31 9 293 241 211 210 214 210
77 75 32 13 26 256 295 108 245 286 226 171 155 144 133 125 119 115 110 100 90 76 62 52 51 40 34 39 38 37 42 50 48 35 37 32 18 9 5 18 16 8 353 340 339 159 212 226 219
165 129 148 174 201 289 360 3 287 315 111 136 134 130 124 119 116 113 109 103 94 81 66 55 47 40 38 43 35 30 33 41 36 34 44 38 19 0 1 14 18 20 22 23 50 85 256 273 246
120 129 156 130 124 76 328 309 328 44 84 107 120 122 121 119 115 109 101 95 86 76 65 56 50 44 39 38 34 33 32 38 38 39 43 35 15 12 21 21 19 21 25 29 47 62 59 63 322
139 148 93 108 136 170 282 264 231 205 153 142 135 131 123 121 112 102 94 91 84 76 63 53 51 47 38 34 31 37 31 36 44 52 46 37 23 17 22 29 30 29 30 32 44 54 48 71 60
13 59 98 111 142 151 209 259 218 196 177 164 146 136 128 123 115 106 97 89 82 70 59 51 46 44 38 34 34 35 30 31 40 46 38 33 26 26 31 34 38 40 41 42 54 59 60 71 67
163 163 133 138 193 163 162 253 263 170 164 152 138 129 124 121 115 111 104 96 87 75 63 51 44 45 38 38 42 37 33 38 43 41 36 35 38 37 39 41 45 47 50 50 58 65 60 70 75
Height
1516 1517 1518 1519 1522 1532 1532 1516 1503 1495 1492 1489 1488 1490 1496 1502 1508 1516 1513 1515 1520 1523 1527 1531 1534 1536 1538 1540 1542 1543 1545 1547 1548 1550 1551 1552 1554 1555 1556 1558 1559 1561 1562 1563 1564 1565 1565 1566 1566
1515 1517 1519 1519 1529 1541 1532 1510 1501 1493 1491 1490 1491 1493 1497 1503 1505 1508 1512 1517 1520 1524 1528 1531 1535 1537 1539 1541 1544 1545 1547 1548 1550 1552 1553 1554 1556 1557 1558 1559 1561 1562 1563 1564 1565 1566 1567 1567 1568
1515 1517 1519 1521 1530 1535 1522 1503 1496 1491 1490 1488 1492 1495 1500 1505 1507 1510 1513 1517 1521 1524 1528 1532 1535 1538 1540 1542 1545 1547 1548 1550 1552 1553 1555 1556 1557 1558 1559 1561 1562 1563 1564 1565 1566 1567 1567 1568 1569
1516 1518 1519 1525 1527 1518 1509 1500 1495 1493 1491 1491 1492 1500 1505 1509 1509 1511 1514 1518 1522 1525 1530 1533 1537 1540 1542 1544 1546 1548 1550 1551 1553 1554 1556 1557 1558 1560 1561 1562 1562 1563 1564 1565 1566 1567 1568 1568 1569
1516 1517 1523 1529 1522 1509 1501 1497 1495 1492 1492 1493 1494 1502 1508 1511 1512 1513 1516 1520 1522 1526 1530 1534 1538 1541 1543 1545 1547 1549 1551 1553 1554 1556 1557 1558 1559 1560 1561 1562 1563 1564 1565 1565 1566 1567 1568 1569 1570
1517 1518 1530 1533 1520 1505 1497 1493 1492 1491 1492 1495 1498 1504 1512 1513 1514 1516 1520 1523 1525 1528 1531 1535 1539 1542 1544 1546 1548 1549 1551 1553 1555 1556 1557 1559 1560 1561 1562 1562 1563 1564 1565 1566 1566 1567 1568 1569 1570
1517 1521 1527 1523 1517 1507 1495 1491 1489 1489 1491 1496 1499 1506 1514 1516 1516 1518 1521 1523 1527 1530 1533 1536 1539 1542 1545 1547 1549 1550 1552 1554 1555 1556 1558 1559 1560 1561 1562 1563 1563 1564 1565 1566 1566 1567 1568 1569 1570
1515 1519 1521 1520 1515 1508 1495 1492 1490 1489 1493 1497 1500 1505 1513 1516 1518 1519 1522 1526 1529 1532 1534 1537 1540 1543 1545 1547 1549 1551 1552 1554 1555 1556 1558 1559 1560 1561 1562 1562 1563 1564 1565 1565 1566 1567 1568 1569 1570
1514 1523 1526 1518 1512 1505 1496 1494 1493 1493 1494 1498 1501 1504 1511 1516 1519 1520 1525 1529 1531 1534 1536 1539 1541 1543 1545 1547 1549 1551 1553 1554 1555 1556 1558 1559 1560 1561 1561 1562 1563 1563 1564 1565 1565 1566 1567 1568 1569
1512 1524 1517 1507 1504 1502 1498 1496 1495 1496 1497 1501 1504 1508 1513 1517 1520 1521 1525 1529 1532 1534 1537 1539 1541 1544 1546 1547 1549 1550 1552 1553 1555 1556 1558 1559 1560 1560 1561 1561 1562 1563 1563 1564 1565 1565 1566 1567 1568
1508 1512 1505 1501 1500 1499 1498 1497 1497 1497 1502 1503 1504 1509 1514 1518 1521 1523 1526 1530 1533 1536 1538 1540 1542 1544 1545 1547 1549 1550 1552 1553 1554 1555 1557 1558 1559 1560 1560 1561 1561 1562 1562 1563 1564 1564 1565 1566 1567
1507 1503 1501 1499 1498 1497 1497 1498 1499 1499 1503 1504 1506 1510 1514 1518 1521 1524 1527 1530 1533 1535 1538 1540 1542 1544 1545 1546 1548 1549 1551 1552 1553 1554 1555 1557 1558 1559 1559 1559 1560 1560 1561 1561 1562 1563 1564 1564 1565
1504 1500 1497 1497 1496 1496 1497 1499 1501 1505 1505 1506 1509 1512 1515 1519 1522 1525 1528 1530 1533 1535 1538 1540 1541 1543 1544 1545 1547 1548 1549 1551 1552 1553 1554 1555 1556 1556 1557 1557 1558 1558 1559 1560 1560 1562 1562 1563 1563
1498 1496 1495 1494 1494 1495 1497 1501 1502 1509 1508 1509 1511 1514 1517 1519 1522 1525 1528 1531 1533 1536 1537 1538 1540 1542 1543 1544 1545 1546 1547 1549 1550 1551 1552 1553 1553 1554 1554 1555 1555 1555 1556 1557 1558 1559 1560 1560 1561
1496 1496 1495 1492 1492 1494 1496 1504 1506 1508 1509 1510 1513 1515 1518 1520 1522 1525 1527 1529 1531 1533 1535 1537 1538 1541 1542 1542 1544 1545 1545 1546 1547 1548 1549 1550 1550 1551 1551 1552 1552 1553 1554 1554 1555 1555 1556 1557 1558
1496 1500 1504 1494 1490 1492 1499 1513 1508 1509 1509 1512 1515 1518 1520 1521 1523 1525 1526 1528 1530 1532 1534 1536 1537 1538 1540 1541 1542 1543 1543 1544 1545 1546 1546 1547 1547 1548 1549 1549 1550 1550 1551 1551 1552 1551 1553 1554 1554
1505 1510 1506 1498 1489 1491 1498 1509 1507 1508 1508 1513 1517 1519 1520 1523 1525 1526 1527 1529 1530 1531 1533 1534 1536 1537 1538 1539 1540 1541 1541 1541 1542 1543 1544 1544 1545 1545 1546 1546 1547 1547 1548 1548 1549 1549 1550 1550 1551
1513 1510 1505 1502 1491 1492 1499 1504 1506 1507 1508 1512 1516 1519 1520 1522 1525 1526 1527 1528 1530 1532 1533 1533 1535 1535 1537 1537 1538 1538 1539 1540 1540 1541 1541 1542 1541 1542 1543 1543 1544 1544 1544 1545 1545 1546 1547 1547 1548
1504 1506 1507 1498 1488 1493 1498 1503 1506 1507 1509 1512 1516 1518 1520 1522 1525 1527 1528 1528 1529 1531 1532 1533 1534 1534 1535 1535 1536 1536 1537 1538 1538 1538 1539 1539 1539 1539 1540 1540 1541 1541 1541 1541 1542 1542 1543 1543 1544
1501 1505 1503 1495 1485 1490 1499 1506 1506 1507 1509 1511 1514 1517 1520 1522 1524 1527 1527 1529 1529 1531 1531 1532 1534 1534 1534 1534 1534 1534 1535 1536 1535 1536 1536 1536 1536 1536 1536 1536 1536 1537 1537 1537 1538 1538 1538 1539 1540
1498 1501 1499 1496 1490 1491 1499 1513 1513 1512 1513 1515 1517 1517 1519 1522 1524 1526 1528 1530 1530 1531 1532 1533 1533 1533 1532 1532 1532 1533 1534 1534 1534 1533 1533 1533 1533 1532 1532 1532 1532 1532 1532 1533 1533 1534 1534 1534 1535
1500 1490 1489 1491 1501 1510 1505 1527 1521 1516 1517 1517 1519 1520 1521 1524 1525 1526 1528 1530 1531 1531 1532 1532 1532 1532 1532 1531 1531 1531 1531 1531 1531 1531 1530 1530 1530 1529 1529 1529 1529 1528 1528 1528 1529 1529 1529 1530 1530
1490 1485 1488 1492 1501 1512 1513 1524 1527 1518 1520 1519 1520 1521 1523 1524 1526 1527 1528 1530 1531 1532 1532 1532 1532 1531 1531 1530 1530 1529 1529 1528 1528 1527 1527 1527 1527 1527 1526 1526 1525 1525 1525 1525 1525 1525 1525 1525 1526
1482 1488 1493 1501 1511 1527 1521 1525 1528 1522 1517 1517 1519 1521 1523 1525 1527 1528 1529 1530 1531 1532 1532 1532 1531 1530 1529 1529 1528 1527 1527 1526 1525 1525 1525 1525 1524 1524 1523 1523 1522 1522 1522 1522 1522 1521 1521 1521 1522
1486 1504 1522 1525 1534 1533 1520 1522 1526 1515 1512 1513 1515 1519 1522 1524 1526 1528 1530 1531 1531 1531 1531 1531 1530 1529 1528 1528 1527 1526 1525 1524 1524 1523 1523 1522 1522 1522 1521 1521 1520 1520 1520 1519 1518 1518 1517 1517 1517
1490 1502 1524 1534 1536 1534 1523 1527 1522 1513 1510 1511 1514 1518 1521 1524 1526 1528 1530 1531 1532 1531 1531 1530 1530 1529 1528 1527 1526 1525 1524 1523 1523 1522 1521 1521 1520 1520 1520 1519 1518 1518 1517 1516 1515 1514 1514 1513 1513
1491 1500 1504 1521 1527 1535 1531 1524 1517 1513 1512 1514 1517 1519 1521 1524 1526 1529 1530 1531 1531 1531 1531 1530 1529 1528 1527 1526 1525 1523 1522 1522 1521 1521 1520 1519 1519 1518 1518 1517 1516 1515 1514 1513 1512 1511 1511 1511 1510
1487 1494 1509 1521 1534 1538 1532 1527 1525 1517 1516 1515 1517 1520 1522 1524 1527 1529 1529 1531 1531 1531 1531 1530 1529 1528 1526 1525 1524 1522 1521 1521 1520 1519 1519 1518 1517 1517 1516 1515 1514 1513 1512 1511 1510 1509 1509 1508 1508
1493 1496 1505 1517 1522 1534 1539 1531 1511 1511 1512 1514 1516 1519 1521 1524 1527 1529 1530 1531 1531 1532 1531 1530 1529 1528 1526 1525 1523 1522 1521 1520 1519 1518 1518 1517 1516 1515 1514 1513 1512 1511 1510 1509 1508 1508 1507 1506 1506
1490 1495 1502 1517 1521 1523 1530 1528 1507 1508 1510 1512 1516 1519 1522 1525 1528 1530 1531 1532 1532 1532 1531 1530 1529 1528 1527 1525 1524 1523 1522 1521 1519 1518 1517 1516 1515 1514 1514 1513 1512 1511 1510 1509 1508 1507 1507 1506 1505